WZZ94EJ UGKO-LGTS

Flight info

Callsign WZZ94EJ
Flight time 2h 23m
Altitude 36000
Route KUSSA H5 LU N37 SARPI UM10 HAKAN UN644 BKZ UM603 EKI UG12 GOLDO UM603 ARNAS
Aircraft A321/M-SDE1E2E3FGIJ1J4RWXY/LB1

Departure

Time 2026-04-17 20:05
Airport David the Builder Kutaisi International Airport (UGKO)

Arrival

Time 2026-04-17 22:28
Airport Thessaloniki Macedonia International Airport (LGTS)
Time Latitude Longitude Altitude Speed Heading
2026-04-17 19:34 42.18106 42.46664 141 ft 0 kts 69°
2026-04-17 19:35 42.18106 42.46663 141 ft 0 kts 69°
2026-04-17 19:41 42.18106 42.46662 141 ft 0 kts 69°
2026-04-17 19:44 42.18105 42.46662 140 ft 0 kts 69°
2026-04-17 19:48 42.18105 42.46661 140 ft 0 kts 69°
2026-04-17 19:54 42.18105 42.46660 140 ft 0 kts 69°
2026-04-17 20:00 42.18106 42.46664 140 ft 2 kts 69°
2026-04-17 20:01 42.18113 42.46697 140 ft 4 kts 78°
2026-04-17 20:01 42.18099 42.46730 140 ft 5 kts 145°
2026-04-17 20:01 42.18058 42.46752 140 ft 6 kts 161°
2026-04-17 20:01 42.18025 42.46737 140 ft 6 kts 228°
2026-04-17 20:02 42.18008 42.46681 140 ft 7 kts 251°
2026-04-17 20:02 42.17989 42.46607 140 ft 9 kts 250°
2026-04-17 20:02 42.17944 42.46589 140 ft 8 kts 153°
2026-04-17 20:02 42.17899 42.46641 140 ft 9 kts 138°
2026-04-17 20:03 42.17850 42.46696 140 ft 9 kts 147°
2026-04-17 20:03 42.17783 42.46721 140 ft 11 kts 169°
2026-04-17 20:03 42.17707 42.46740 140 ft 12 kts 170°
2026-04-17 20:03 42.17624 42.46758 141 ft 12 kts 170°
2026-04-17 20:04 42.17543 42.46778 142 ft 11 kts 169°
2026-04-17 20:04 42.17502 42.46837 141 ft 9 kts 87°
2026-04-17 20:04 42.17516 42.46941 141 ft 21 kts 80°
2026-04-17 20:04 42.17580 42.47452 140 ft 88 kts 80°
2026-04-17 20:05 42.17715 42.48512 212 ft 133 kts 80°
2026-04-17 20:05 42.17862 42.49751 829 ft 133 kts 81°
2026-04-17 20:05 42.18013 42.50990 1453 ft 134 kts 82°
2026-04-17 20:05 42.18168 42.52226 2047 ft 135 kts 83°
2026-04-17 20:06 42.18009 42.53547 2258 ft 158 kts 115°
2026-04-17 20:06 42.17079 42.54560 2391 ft 196 kts 156°
2026-04-17 20:06 42.15618 42.54409 2522 ft 237 kts 194°
2026-04-17 20:06 42.14075 42.53286 2790 ft 263 kts 209°
2026-04-17 20:07 42.12584 42.51799 3494 ft 268 kts 214°
2026-04-17 20:07 42.11131 42.50232 4285 ft 269 kts 216°
2026-04-17 20:07 42.09863 42.48286 4899 ft 281 kts 232°
2026-04-17 20:07 42.08736 42.46131 5643 ft 282 kts 233°
2026-04-17 20:08 42.07991 42.44702 6230 ft 281 kts 233°
2026-04-17 20:08 42.06870 42.42551 7036 ft 279 kts 234°
2026-04-17 20:08 42.05394 42.39735 8091 ft 277 kts 234°
2026-04-17 20:08 42.04643 42.38307 8631 ft 277 kts 235°
2026-04-17 20:09 42.03531 42.36190 9413 ft 277 kts 235°
2026-04-17 20:09 42.02414 42.34063 10125 ft 279 kts 236°
2026-04-17 20:09 42.01265 42.31874 10337 ft 300 kts 236°
2026-04-17 20:09 42.00015 42.29494 10474 ft 322 kts 236°
2026-04-17 20:10 41.98698 42.26991 10911 ft 331 kts 236°
2026-04-17 20:10 41.97356 42.24445 11540 ft 334 kts 236°
2026-04-17 20:10 41.96023 42.21918 12202 ft 336 kts 236°
2026-04-17 20:10 41.94668 42.19349 12889 ft 337 kts 236°
2026-04-17 20:11 41.93304 42.16770 13554 ft 339 kts 236°
2026-04-17 20:11 41.91928 42.14173 14151 ft 342 kts 236°
2026-04-17 20:11 41.90540 42.11558 14713 ft 345 kts 236°
2026-04-17 20:11 41.89157 42.08951 15259 ft 349 kts 236°
2026-04-17 20:12 41.87740 42.06277 15822 ft 353 kts 237°
2026-04-17 20:12 41.86309 42.03579 16366 ft 356 kts 237°
2026-04-17 20:12 41.84862 42.00847 16918 ft 360 kts 237°
2026-04-17 20:12 41.83418 41.98119 17433 ft 364 kts 237°
2026-04-17 20:13 41.81941 41.95336 17956 ft 368 kts 237°
2026-04-17 20:13 41.80442 41.92528 18471 ft 371 kts 237°
2026-04-17 20:13 41.78935 41.89708 18963 ft 373 kts 237°
2026-04-17 20:13 41.77418 41.86869 19499 ft 376 kts 237°
2026-04-17 20:14 41.75910 41.84043 20008 ft 378 kts 237°
2026-04-17 20:14 41.74374 41.81169 20536 ft 380 kts 237°
2026-04-17 20:14 41.72828 41.78278 21038 ft 383 kts 237°
2026-04-17 20:14 41.71274 41.75376 21548 ft 385 kts 237°
2026-04-17 20:15 41.69705 41.72453 22051 ft 387 kts 237°
2026-04-17 20:15 41.68129 41.69521 22536 ft 389 kts 237°
2026-04-17 20:15 41.66563 41.66609 22996 ft 391 kts 237°
2026-04-17 20:15 41.64970 41.63644 23443 ft 393 kts 237°
2026-04-17 20:16 41.63365 41.60660 23819 ft 395 kts 237°
2026-04-17 20:16 41.61753 41.57664 24204 ft 397 kts 237°
2026-04-17 20:16 41.60138 41.54666 24579 ft 399 kts 237°
2026-04-17 20:16 41.58504 41.51639 24952 ft 400 kts 237°
2026-04-17 20:17 41.56988 41.48579 25301 ft 399 kts 244°
2026-04-17 20:17 41.55896 41.45170 25658 ft 397 kts 255°
2026-04-17 20:17 41.55334 41.41562 26006 ft 397 kts 265°
2026-04-17 20:17 41.55301 41.37874 26349 ft 398 kts 275°
2026-04-17 20:18 41.55525 41.34232 26695 ft 399 kts 275°
2026-04-17 20:18 41.55745 41.30528 27036 ft 401 kts 274°
2026-04-17 20:18 41.55956 41.26802 27384 ft 402 kts 274°
2026-04-17 20:18 41.56164 41.23066 27723 ft 404 kts 274°
2026-04-17 20:19 41.56372 41.19299 28061 ft 405 kts 274°
2026-04-17 20:19 41.56578 41.15583 28378 ft 407 kts 274°
2026-04-17 20:19 41.56789 41.11802 28703 ft 408 kts 274°
2026-04-17 20:19 41.57001 41.08006 29015 ft 410 kts 274°
2026-04-17 20:20 41.57212 41.04191 29327 ft 412 kts 274°
2026-04-17 20:20 41.57423 41.00362 29641 ft 413 kts 274°
2026-04-17 20:20 41.57631 40.96574 29954 ft 415 kts 274°
2026-04-17 20:20 41.57842 40.92721 30227 ft 416 kts 274°
2026-04-17 20:21 41.58049 40.88863 30502 ft 417 kts 274°
2026-04-17 20:21 41.58255 40.85000 30885 ft 415 kts 274°
2026-04-17 20:21 41.58460 40.81162 31298 ft 413 kts 274°
2026-04-17 20:21 41.58662 40.77341 31699 ft 411 kts 274°
2026-04-17 20:22 41.58861 40.73544 32093 ft 409 kts 273°
2026-04-17 20:22 41.59059 40.69765 32479 ft 407 kts 273°
2026-04-17 20:22 41.59253 40.66055 32867 ft 405 kts 273°
2026-04-17 20:22 41.59449 40.62296 33236 ft 403 kts 273°
2026-04-17 20:23 41.59642 40.58570 33614 ft 401 kts 273°
2026-04-17 20:23 41.59835 40.54847 33962 ft 400 kts 273°
2026-04-17 20:23 41.60024 40.51147 34272 ft 398 kts 273°
2026-04-17 20:23 41.60210 40.47491 34568 ft 397 kts 273°
2026-04-17 20:24 41.60395 40.43813 34857 ft 396 kts 272°
2026-04-17 20:24 41.60578 40.40130 35151 ft 395 kts 272°
2026-04-17 20:24 41.60755 40.36521 35436 ft 393 kts 272°
2026-04-17 20:24 41.60930 40.32867 35722 ft 392 kts 272°
2026-04-17 20:25 41.61104 40.29220 35877 ft 392 kts 272°
2026-04-17 20:25 41.61452 40.22001 35910 ft 391 kts 272°
2026-04-17 20:26 41.61802 40.14741 35906 ft 390 kts 272°
2026-04-17 20:26 41.62141 40.07531 35904 ft 391 kts 272°
2026-04-17 20:27 41.62480 40.00265 35909 ft 391 kts 272°
2026-04-17 20:27 41.62816 39.92984 35919 ft 392 kts 272°
2026-04-17 20:28 41.63145 39.85749 35924 ft 392 kts 272°
2026-04-17 20:28 41.63471 39.78453 35930 ft 393 kts 271°
2026-04-17 20:29 41.63782 39.71192 35929 ft 393 kts 271°
2026-04-17 20:29 41.64095 39.63888 35931 ft 393 kts 271°
2026-04-17 20:30 41.64564 39.52910 35933 ft 394 kts 271°
2026-04-17 20:30 41.64867 39.45627 35925 ft 394 kts 271°
2026-04-17 20:31 41.65169 39.38294 35924 ft 394 kts 271°
2026-04-17 20:31 41.65468 39.30999 35937 ft 395 kts 271°
2026-04-17 20:32 41.65759 39.23661 35936 ft 395 kts 271°
2026-04-17 20:32 41.66044 39.16314 35934 ft 395 kts 270°
2026-04-17 20:33 41.66320 39.08994 35924 ft 396 kts 270°
2026-04-17 20:33 41.66595 39.01631 35922 ft 396 kts 270°
2026-04-17 20:34 41.66871 38.94289 35925 ft 397 kts 270°
2026-04-17 20:34 41.67141 38.86905 35939 ft 397 kts 270°
2026-04-17 20:35 41.67403 38.79522 35937 ft 397 kts 270°
2026-04-17 20:35 41.67660 38.72183 35932 ft 397 kts 270°
2026-04-17 20:36 41.67910 38.64799 35939 ft 397 kts 270°
2026-04-17 20:36 41.68158 38.57447 35943 ft 397 kts 270°
2026-04-17 20:37 41.68410 38.50039 35935 ft 398 kts 269°
2026-04-17 20:37 41.68653 38.42687 35939 ft 398 kts 269°
2026-04-17 20:38 41.68887 38.35289 35940 ft 398 kts 269°
2026-04-17 20:38 41.69121 38.27865 35937 ft 398 kts 269°
2026-04-17 20:39 41.69344 38.20516 35937 ft 398 kts 269°
2026-04-17 20:39 41.69562 38.13091 35935 ft 399 kts 269°
2026-04-17 20:40 41.69781 38.05670 35938 ft 399 kts 269°
2026-04-17 20:40 41.69996 37.98239 35935 ft 399 kts 269°
2026-04-17 20:41 41.70200 37.90839 35938 ft 400 kts 269°
2026-04-17 20:41 41.70404 37.83438 35941 ft 400 kts 268°
2026-04-17 20:42 41.70610 37.75983 35944 ft 400 kts 268°
2026-04-17 20:42 41.70805 37.68513 35943 ft 400 kts 268°
2026-04-17 20:43 41.70995 37.61105 35946 ft 400 kts 268°
2026-04-17 20:43 41.71173 37.53646 35946 ft 400 kts 268°
2026-04-17 20:44 41.71351 37.46237 35947 ft 400 kts 268°
2026-04-17 20:44 41.71536 37.38782 35945 ft 400 kts 268°
2026-04-17 20:45 41.71707 37.31377 35946 ft 400 kts 267°
2026-04-17 20:45 41.71866 37.23917 35940 ft 400 kts 267°
2026-04-17 20:46 41.72022 37.16439 35941 ft 401 kts 267°
2026-04-17 20:46 41.72183 37.09014 35944 ft 402 kts 267°
2026-04-17 20:47 41.72335 37.01516 35950 ft 402 kts 266°
2026-04-17 20:47 41.72478 36.94067 35949 ft 402 kts 266°
2026-04-17 20:48 41.72624 36.86571 35953 ft 403 kts 266°
2026-04-17 20:48 41.72762 36.79056 35952 ft 403 kts 266°
2026-04-17 20:49 41.72893 36.71589 35951 ft 404 kts 266°
2026-04-17 20:49 41.73026 36.64057 35951 ft 405 kts 266°
2026-04-17 20:50 41.73153 36.56503 35948 ft 405 kts 266°
2026-04-17 20:50 41.73265 36.49000 35951 ft 406 kts 266°
2026-04-17 20:51 41.73374 36.41433 35947 ft 407 kts 266°
2026-04-17 20:51 41.73479 36.33854 35951 ft 407 kts 266°
2026-04-17 20:52 41.73589 36.26270 35951 ft 408 kts 266°
2026-04-17 20:52 41.73692 36.18707 35947 ft 408 kts 266°
2026-04-17 20:53 41.73786 36.11090 35944 ft 409 kts 266°
2026-04-17 20:53 41.73873 36.03456 35940 ft 409 kts 266°
2026-04-17 20:54 41.73959 35.95868 35936 ft 409 kts 266°
2026-04-17 20:54 41.74038 35.88267 35934 ft 410 kts 265°
2026-04-17 20:55 41.74108 35.80617 35933 ft 410 kts 265°
2026-04-17 20:55 41.74178 35.72960 35932 ft 411 kts 265°
2026-04-17 20:56 41.74244 35.65351 35930 ft 411 kts 265°
2026-04-17 20:56 41.74306 35.57691 35932 ft 411 kts 265°
2026-04-17 20:57 41.74358 35.50011 35930 ft 412 kts 265°
2026-04-17 20:57 41.74406 35.42371 35923 ft 412 kts 265°
2026-04-17 20:58 41.74450 35.34652 35924 ft 413 kts 265°
2026-04-17 20:58 41.74495 35.26944 35919 ft 414 kts 265°
2026-04-17 20:59 41.74529 35.19266 35917 ft 414 kts 265°
2026-04-17 20:59 41.74559 35.11538 35909 ft 415 kts 265°
2026-04-17 21:00 41.74582 35.03781 35907 ft 416 kts 265°
2026-04-17 21:00 41.74600 34.96075 35908 ft 416 kts 265°
2026-04-17 21:01 41.74618 34.88307 35907 ft 417 kts 265°
2026-04-17 21:01 41.74630 34.80521 35898 ft 417 kts 265°
2026-04-17 21:02 41.74632 34.72776 35891 ft 418 kts 265°
2026-04-17 21:02 41.74621 34.64982 35891 ft 418 kts 264°
2026-04-17 21:03 41.74608 34.57186 35880 ft 418 kts 264°
2026-04-17 21:03 41.74595 34.49435 35882 ft 418 kts 264°
2026-04-17 21:04 41.74584 34.42943 35883 ft 419 kts 264°
2026-04-17 21:04 41.74562 34.33872 35878 ft 418 kts 264°
2026-04-17 21:05 41.74536 34.27365 35875 ft 419 kts 264°
2026-04-17 21:05 41.74492 34.18298 35872 ft 418 kts 264°
2026-04-17 21:06 41.74455 34.11801 35875 ft 419 kts 264°
2026-04-17 21:06 41.74412 34.03984 35875 ft 419 kts 264°
2026-04-17 21:07 41.74369 33.96164 35871 ft 419 kts 264°
2026-04-17 21:07 41.74317 33.88344 35868 ft 420 kts 264°
2026-04-17 21:08 41.74256 33.80556 35866 ft 421 kts 264°
2026-04-17 21:08 41.74192 33.72700 35867 ft 421 kts 264°
2026-04-17 21:09 41.74114 33.64844 35860 ft 422 kts 264°
2026-04-17 21:09 41.74034 33.57015 35860 ft 422 kts 264°
2026-04-17 21:10 41.73956 33.49128 35853 ft 423 kts 264°
2026-04-17 21:10 41.73869 33.41279 35851 ft 424 kts 264°
2026-04-17 21:11 41.73776 33.33349 35848 ft 425 kts 264°
2026-04-17 21:11 41.73674 33.25475 35841 ft 425 kts 264°
2026-04-17 21:12 41.73569 33.17549 35839 ft 426 kts 264°
2026-04-17 21:12 41.73459 33.09590 35839 ft 427 kts 264°
2026-04-17 21:13 41.73348 33.01669 35840 ft 427 kts 264°
2026-04-17 21:13 41.73253 32.93701 35841 ft 428 kts 264°
2026-04-17 21:14 41.73166 32.85771 35839 ft 428 kts 264°
2026-04-17 21:14 41.73066 32.77776 35842 ft 428 kts 264°
2026-04-17 21:15 41.72964 32.69792 35842 ft 429 kts 264°
2026-04-17 21:15 41.72850 32.61838 35842 ft 429 kts 264°
2026-04-17 21:16 41.72728 32.53833 35852 ft 430 kts 264°
2026-04-17 21:16 41.72604 32.45870 35853 ft 430 kts 264°
2026-04-17 21:17 41.72472 32.37844 35860 ft 430 kts 264°
2026-04-17 21:17 41.72231 32.29880 35867 ft 427 kts 257°
2026-04-17 21:18 41.70957 32.22163 35869 ft 424 kts 252°
2026-04-17 21:18 41.69572 32.14524 35869 ft 424 kts 252°
2026-04-17 21:19 41.68188 32.06843 35874 ft 424 kts 252°
2026-04-17 21:19 41.66790 31.99155 35879 ft 424 kts 252°
2026-04-17 21:20 41.65394 31.91521 35878 ft 425 kts 252°
2026-04-17 21:20 41.63994 31.83841 35878 ft 425 kts 252°
2026-04-17 21:21 41.62594 31.76206 35879 ft 425 kts 252°
2026-04-17 21:21 41.61163 31.68510 35880 ft 425 kts 252°
2026-04-17 21:22 41.59742 31.60878 35877 ft 426 kts 252°
2026-04-17 21:22 41.58307 31.53179 35884 ft 426 kts 252°
2026-04-17 21:23 41.56874 31.45486 35883 ft 427 kts 252°
2026-04-17 21:23 41.55441 31.37837 35885 ft 427 kts 252°
2026-04-17 21:24 41.53984 31.30131 35888 ft 428 kts 252°
2026-04-17 21:24 41.52528 31.22468 35890 ft 428 kts 252°
2026-04-17 21:25 41.51058 31.14763 35891 ft 428 kts 252°
2026-04-17 21:25 41.49578 31.07041 35889 ft 429 kts 252°
2026-04-17 21:26 41.48095 30.99323 35891 ft 430 kts 252°
2026-04-17 21:26 41.46617 30.91638 35893 ft 430 kts 252°
2026-04-17 21:27 41.45122 30.83891 35901 ft 431 kts 252°
2026-04-17 21:27 41.43623 30.76194 35899 ft 431 kts 252°
2026-04-17 21:28 41.42130 30.68447 35902 ft 432 kts 253°
2026-04-17 21:28 41.40756 30.60638 35907 ft 432 kts 254°
2026-04-17 21:29 41.39410 30.52814 35909 ft 433 kts 254°
2026-04-17 21:29 41.38033 30.44993 35914 ft 433 kts 254°
2026-04-17 21:30 41.36647 30.37222 35914 ft 433 kts 254°
2026-04-17 21:30 41.35241 30.29404 35915 ft 434 kts 254°
2026-04-17 21:31 41.33834 30.21637 35922 ft 434 kts 254°
2026-04-17 21:31 41.32414 30.13808 35921 ft 434 kts 254°
2026-04-17 21:32 41.30999 30.06028 35923 ft 434 kts 254°
2026-04-17 21:32 41.29564 29.98208 35928 ft 434 kts 253°
2026-04-17 21:33 41.28003 29.90434 35921 ft 434 kts 252°
2026-04-17 21:33 41.26380 29.82745 35925 ft 434 kts 252°
2026-04-17 21:34 41.24756 29.75001 35927 ft 435 kts 252°
2026-04-17 21:35 41.22351 29.63405 35922 ft 435 kts 252°
2026-04-17 21:35 41.21352 29.58616 35913 ft 435 kts 252°
2026-04-17 21:36 41.19739 29.50914 35913 ft 435 kts 253°
2026-04-17 21:36 41.18208 29.43112 35914 ft 436 kts 254°
2026-04-17 21:37 41.16760 29.35342 35919 ft 436 kts 254°
2026-04-17 21:37 41.15283 29.27532 35913 ft 436 kts 254°
2026-04-17 21:38 41.13765 29.19718 35913 ft 436 kts 253°
2026-04-17 21:38 41.11648 29.12269 35914 ft 432 kts 238°
2026-04-17 21:39 41.08380 29.05581 35912 ft 431 kts 235°
2026-04-17 21:39 41.05068 28.98934 35911 ft 432 kts 235°
2026-04-17 21:40 41.01776 28.92334 35909 ft 432 kts 235°
2026-04-17 21:40 40.98494 28.85664 35906 ft 432 kts 240°
2026-04-17 21:41 40.96432 28.78183 35903 ft 435 kts 259°
2026-04-17 21:41 40.96139 28.70207 35904 ft 438 kts 268°
2026-04-17 21:42 40.96118 28.62128 35906 ft 438 kts 268°
2026-04-17 21:42 40.96081 28.54055 35910 ft 438 kts 268°
2026-04-17 21:43 40.96043 28.46028 35915 ft 438 kts 268°
2026-04-17 21:43 40.96006 28.37967 35916 ft 438 kts 268°
2026-04-17 21:44 40.95960 28.29914 35918 ft 437 kts 268°
2026-04-17 21:44 40.95915 28.21865 35918 ft 437 kts 268°
2026-04-17 21:45 40.95862 28.13867 35915 ft 436 kts 268°
2026-04-17 21:45 40.95793 28.05836 35916 ft 436 kts 268°
2026-04-17 21:46 40.95723 27.97794 35917 ft 436 kts 268°
2026-04-17 21:46 40.95656 27.89752 35918 ft 436 kts 268°
2026-04-17 21:47 40.95578 27.81754 35921 ft 436 kts 268°
2026-04-17 21:47 40.95494 27.73732 35925 ft 436 kts 268°
2026-04-17 21:48 40.95406 27.65712 35930 ft 436 kts 268°
2026-04-17 21:48 40.95309 27.57729 35936 ft 436 kts 268°
2026-04-17 21:49 40.95204 27.49699 35945 ft 436 kts 268°
2026-04-17 21:49 40.95088 27.41672 35948 ft 435 kts 267°
2026-04-17 21:50 40.94747 27.33723 35952 ft 435 kts 264°
2026-04-17 21:50 40.94233 27.25744 35954 ft 435 kts 264°
2026-04-17 21:51 40.93733 27.17771 35952 ft 434 kts 265°
2026-04-17 21:51 40.93281 27.09811 35953 ft 434 kts 265°
2026-04-17 21:52 40.92846 27.01846 35951 ft 434 kts 265°
2026-04-17 21:52 40.92402 26.93925 35952 ft 434 kts 265°
2026-04-17 21:53 40.91943 26.85961 35955 ft 434 kts 265°
2026-04-17 21:53 40.91473 26.77997 35955 ft 434 kts 265°
2026-04-17 21:54 40.91003 26.70048 35956 ft 433 kts 265°
2026-04-17 21:54 40.90532 26.62149 35958 ft 433 kts 265°
2026-04-17 21:55 40.90045 26.54200 35959 ft 433 kts 265°
2026-04-17 21:55 40.89559 26.46311 35961 ft 432 kts 265°
2026-04-17 21:56 40.89152 26.39724 35959 ft 432 kts 265°
2026-04-17 21:56 40.88580 26.30526 35952 ft 431 kts 265°
2026-04-17 21:57 40.88159 26.23963 35947 ft 430 kts 264°
2026-04-17 21:57 40.87468 26.16102 35945 ft 429 kts 262°
2026-04-17 21:58 40.86655 26.08271 35937 ft 429 kts 262°
2026-04-17 21:58 40.85856 26.00496 35931 ft 429 kts 262°
2026-04-17 21:59 40.85069 25.92657 35930 ft 429 kts 262°
2026-04-17 21:59 40.84151 25.84891 35930 ft 430 kts 261°
2026-04-17 22:00 40.83165 25.77082 35930 ft 430 kts 261°
2026-04-17 22:00 40.82188 25.69270 35933 ft 431 kts 261°
2026-04-17 22:01 40.81238 25.61498 35935 ft 431 kts 261°
2026-04-17 22:01 40.80272 25.53663 35941 ft 432 kts 261°
2026-04-17 22:02 40.79301 25.45876 35943 ft 432 kts 261°
2026-04-17 22:02 40.78319 25.38036 35795 ft 432 kts 261°
2026-04-17 22:02 40.77828 25.34129 35540 ft 430 kts 261°
2026-04-17 22:03 40.77343 25.30295 35296 ft 428 kts 261°
2026-04-17 22:03 40.76854 25.26430 35043 ft 425 kts 261°
2026-04-17 22:03 40.76366 25.22590 34791 ft 423 kts 261°
2026-04-17 22:03 40.75883 25.18782 34469 ft 419 kts 261°
2026-04-17 22:04 40.75400 25.14992 34010 ft 416 kts 260°
2026-04-17 22:04 40.74918 25.11235 33510 ft 414 kts 260°
2026-04-17 22:04 40.74443 25.07545 33034 ft 410 kts 261°
2026-04-17 22:04 40.73966 25.03842 32570 ft 407 kts 261°
2026-04-17 22:05 40.73495 25.00179 32093 ft 403 kts 261°
2026-04-17 22:05 40.73030 24.96549 31627 ft 400 kts 261°
2026-04-17 22:05 40.72566 24.92930 31166 ft 397 kts 261°
2026-04-17 22:05 40.72099 24.89344 30708 ft 395 kts 261°
2026-04-17 22:06 40.71641 24.85838 30262 ft 392 kts 261°
2026-04-17 22:06 40.71177 24.82301 29791 ft 389 kts 261°
2026-04-17 22:06 40.70715 24.78796 29332 ft 386 kts 261°
2026-04-17 22:06 40.70259 24.75332 28907 ft 381 kts 261°
2026-04-17 22:07 40.69808 24.71891 28491 ft 378 kts 261°
2026-04-17 22:07 40.69363 24.68491 28087 ft 374 kts 261°
2026-04-17 22:07 40.68920 24.65116 27678 ft 372 kts 261°
2026-04-17 22:07 40.68484 24.61817 27292 ft 369 kts 261°
2026-04-17 22:08 40.68043 24.58480 26910 ft 366 kts 262°
2026-04-17 22:08 40.67603 24.55176 26520 ft 363 kts 261°
2026-04-17 22:08 40.67166 24.51903 26138 ft 361 kts 261°
2026-04-17 22:08 40.66735 24.48693 25762 ft 359 kts 261°
2026-04-17 22:09 40.66299 24.45474 25378 ft 356 kts 261°
2026-04-17 22:09 40.65868 24.42276 24997 ft 353 kts 261°
2026-04-17 22:09 40.65439 24.39096 24612 ft 351 kts 261°
2026-04-17 22:09 40.65014 24.35933 24215 ft 350 kts 261°
2026-04-17 22:10 40.64587 24.32784 23827 ft 348 kts 261°
2026-04-17 22:10 40.64161 24.29654 23406 ft 347 kts 261°
2026-04-17 22:10 40.63735 24.26529 22969 ft 345 kts 261°
2026-04-17 22:10 40.63314 24.23430 22569 ft 342 kts 262°
2026-04-17 22:11 40.62904 24.20393 22162 ft 339 kts 262°
2026-04-17 22:11 40.62493 24.17348 21770 ft 337 kts 262°
2026-04-17 22:11 40.62081 24.14325 21379 ft 334 kts 261°
2026-04-17 22:11 40.61668 24.11318 20973 ft 333 kts 261°
2026-04-17 22:12 40.61256 24.08324 20574 ft 331 kts 261°
2026-04-17 22:12 40.60846 24.05343 20179 ft 329 kts 261°
2026-04-17 22:12 40.60439 24.02375 19783 ft 328 kts 261°
2026-04-17 22:12 40.60038 23.99457 19395 ft 327 kts 261°
2026-04-17 22:13 40.59633 23.96509 19002 ft 326 kts 261°
2026-04-17 22:13 40.59226 23.93566 18618 ft 325 kts 261°
2026-04-17 22:13 40.58817 23.90635 18226 ft 325 kts 261°
2026-04-17 22:13 40.58412 23.87745 17806 ft 324 kts 261°
2026-04-17 22:14 40.58008 23.84841 17414 ft 322 kts 261°
2026-04-17 22:14 40.57606 23.81951 17029 ft 319 kts 261°
2026-04-17 22:14 40.57205 23.79078 16650 ft 318 kts 261°
2026-04-17 22:14 40.56805 23.76219 16269 ft 316 kts 261°
2026-04-17 22:15 40.56406 23.73379 15889 ft 315 kts 261°
2026-04-17 22:15 40.56010 23.70573 15516 ft 314 kts 261°
2026-04-17 22:15 40.55611 23.67748 15134 ft 313 kts 261°
2026-04-17 22:15 40.55212 23.64933 14764 ft 312 kts 261°
2026-04-17 22:16 40.54815 23.62127 14384 ft 311 kts 261°
2026-04-17 22:16 40.54423 23.59360 14029 ft 310 kts 261°
2026-04-17 22:16 40.54025 23.56566 13648 ft 310 kts 261°
2026-04-17 22:16 40.53627 23.53789 13261 ft 308 kts 261°
2026-04-17 22:17 40.53233 23.51030 12892 ft 306 kts 261°
2026-04-17 22:17 40.52860 23.48287 12529 ft 303 kts 265°
2026-04-17 22:17 40.52768 23.45576 12185 ft 299 kts 271°
2026-04-17 22:17 40.52730 23.42842 11819 ft 298 kts 271°
2026-04-17 22:18 40.52684 23.40126 11462 ft 297 kts 271°
2026-04-17 22:18 40.52633 23.37417 11109 ft 295 kts 271°
2026-04-17 22:18 40.52584 23.34720 10755 ft 294 kts 271°
2026-04-17 22:18 40.52411 23.32046 10403 ft 295 kts 257°
2026-04-17 22:19 40.51530 23.29634 9937 ft 302 kts 232°
2026-04-17 22:19 40.49891 23.27892 9491 ft 306 kts 206°
2026-04-17 22:19 40.47848 23.27123 9092 ft 305 kts 190°
2026-04-17 22:19 40.45779 23.26504 8700 ft 304 kts 195°
2026-04-17 22:20 40.43767 23.25673 8313 ft 303 kts 200°
2026-04-17 22:20 40.41814 23.24602 7922 ft 303 kts 206°
2026-04-17 22:20 40.39991 23.23321 7555 ft 301 kts 212°
2026-04-17 22:20 40.38250 23.21812 7218 ft 298 kts 217°
2026-04-17 22:21 40.36630 23.20122 6859 ft 296 kts 222°
2026-04-17 22:21 40.35121 23.18281 6504 ft 294 kts 227°
2026-04-17 22:21 40.33751 23.16290 6123 ft 293 kts 232°
2026-04-17 22:21 40.32545 23.14170 5773 ft 290 kts 238°
2026-04-17 22:22 40.31499 23.11932 5523 ft 284 kts 243°
2026-04-17 22:22 40.30633 23.09667 5398 ft 272 kts 248°
2026-04-17 22:22 40.29946 23.07445 5304 ft 258 kts 254°
2026-04-17 22:22 40.29857 23.05213 5120 ft 239 kts 290°
2026-04-17 22:23 40.30768 23.03554 4879 ft 220 kts 329°
2026-04-17 22:23 40.32165 23.03001 4575 ft 203 kts 353°
2026-04-17 22:23 40.33504 23.02699 4276 ft 190 kts 351°
2026-04-17 22:23 40.34737 23.02394 4033 ft 170 kts 350°
2026-04-17 22:24 40.35826 23.02113 3807 ft 151 kts 350°
2026-04-17 22:24 40.36836 23.01849 3595 ft 146 kts 350°
2026-04-17 22:24 40.37829 23.01581 3385 ft 146 kts 348°
2026-04-17 22:24 40.38818 23.01276 3131 ft 145 kts 347°
2026-04-17 22:25 40.39792 23.00971 2878 ft 146 kts 347°
2026-04-17 22:25 40.40778 23.00661 2640 ft 145 kts 347°
2026-04-17 22:25 40.41762 23.00351 2396 ft 145 kts 347°
2026-04-17 22:25 40.42747 23.00038 2146 ft 146 kts 346°
2026-04-17 22:26 40.43723 22.99737 1868 ft 145 kts 347°
2026-04-17 22:26 40.44712 22.99444 1619 ft 145 kts 347°
2026-04-17 22:26 40.45696 22.99129 1395 ft 145 kts 346°
2026-04-17 22:26 40.46672 22.98788 1146 ft 144 kts 345°
2026-04-17 22:27 40.47644 22.98465 910 ft 144 kts 346°
2026-04-17 22:27 40.48597 22.98174 656 ft 141 kts 347°
2026-04-17 22:27 40.49554 22.97879 405 ft 140 kts 345°
2026-04-17 22:27 40.50502 22.97560 181 ft 139 kts 345°
2026-04-17 22:28 40.51429 22.97272 37 ft 126 kts 346°
2026-04-17 22:28 40.52134 22.97046 28 ft 67 kts 346°
2026-04-17 22:28 40.52443 22.96946 28 ft 36 kts 346°
2026-04-17 22:28 40.52625 22.96896 29 ft 16 kts 355°
2026-04-17 22:29 40.52684 22.96977 29 ft 13 kts 73°
2026-04-17 22:29 40.52667 22.97056 29 ft 10 kts 143°
2026-04-17 22:29 40.52601 22.97080 29 ft 9 kts 168°
2026-04-17 22:29 40.52531 22.97102 29 ft 11 kts 166°
2026-04-17 22:30 40.52449 22.97130 28 ft 13 kts 166°
2026-04-17 22:30 40.52388 22.97169 28 ft 10 kts 126°
2026-04-17 22:30 40.52389 22.97259 29 ft 11 kts 77°
2026-04-17 22:30 40.52393 22.97361 29 ft 12 kts 112°
2026-04-17 22:31 40.52334 22.97442 28 ft 13 kts 135°
2026-04-17 22:31 40.52264 22.97533 29 ft 15 kts 134°
2026-04-17 22:31 40.52195 22.97618 35 ft 11 kts 141°
2026-04-17 22:31 40.52142 22.97673 29 ft 5 kts 120°
2026-04-17 22:32 40.52156 22.97718 29 ft 6 kts 41°
2026-04-17 22:32 40.52182 22.97750 29 ft 4 kts 46°
2026-04-17 22:32 40.52191 22.97761 29 ft 0 kts 45°